Tracking 28790 objects as of 19-Apr-2024
HD Live streaming from Space Station
objects crossing your sky now

COSMOS 1727

Track COSMOS 1727 now!
10-day predictions
COSMOS 1727 is classified as:


NORAD ID: 16510
Int'l Code: 1986-008A
Perigee: 963.5 km
Apogee: 1,017.3 km
Inclination: 83.0 °
Period: 104.8 minutes
Semi major axis: 7361 km
RCS: 1.5351 m2 (large)
Launch date: January 23, 1986
Source: Commonwealth of Independent States (former USSR) (CIS)
Launch site: PLESETSK MISSILE AND SPACE COMPLEX (PKMTR)
Your satellite tracking list
Your tracking list is empty




NASA's NSSDC Master Catalog

Two Line Element Set (TLE):
1 16510U 86008A   24109.79012135  .00000127  00000-0  11806-3 0  9998
2 16510  82.9520 196.9146 0036550 273.2969 204.8138 13.74543907917291
Source of the keplerian elements: AFSPC